Champaign, IL

7:29 PM CDT on June 26, 2017 (GMT -0500)
Univ Of Illinois-Willard

Weather History for KCMI - February, 2013

Change the Weather History Date:

Monday, February 11, 2013

  Actual Average Record
Temperature  
Mean Temperature 38 °F 28 °F  
Max Temperature 46 °F 37 °F 69 °F (1999)
Min Temperature 29 °F 20 °F -12 °F (2014)
Degree Days  
Heating Degree Days 27 37  
Month to date heating degree days 373 418  
Since 1 July heating degree days 3557 3928  
Cooling Degree Days 0 0  
Month to date cooling degree days 0 0  
Year to date cooling degree days 0 0  
Moisture  
Dew Point 27 °F    
Average Humidity 72    
Maximum Humidity 85    
Minimum Humidity 59    
Precipitation  
Precipitation 0.00 in 0.08 in 1.09 in (2009)
Month to date precipitation 0.72 0.80  
Year to date precipitation 3.09 2.85  
Sea Level Pressure  
Sea Level Pressure 29.93 in    
Wind  
Wind Speed 20 mph (West)    
Max Wind Speed 36 mph    
Max Gust Speed 45 mph    
Visibility 10 miles    
Events      
T = Trace of Precipitation, MM = Missing Value Source: NWS Daily Summary

Daily Weather History Graph

Daily Weather History Graph

Search for Another Location

Airport or City:

Trip Planner

Search our weather history database for the weather conditions in past years. The results will help you decide how hot, cold, wet, or windy it might be!

Date:

Astronomy

Feb. 11, 2013 Rise Set
Actual Time 6:50 AM CST 5:24 PM CST
Civil Twilight 6:22 AM CST 5:52 PM CST
Nautical Twilight 5:50 AM CST 6:24 PM CST
Astronomical Twilight 5:19 AM CST 6:56 PM CST
Moon 7:15 AM CST (2/11) 7:21 PM CST (2/11)
Length of Visible Light 11h 29m
Length of Day
10h 33m
Waxing Crescent, 3% of the Moon is Illuminated
Feb 11
Waxing Crescent
Feb 17
First Quarter
Feb 25
Full
Mar 4
Last Quarter
Mar 11
New

Hourly Weather History & Observations

Time (CST) Temp. Windchill Dew Point Humidity Pressure Visibility Wind Dir Wind Speed Gust Speed Precip Events Conditions
12:53 AM 43.0 °F 35.7 °F 37.0 °F 80% 29.68 in 10.0 mi WSW 15.0 mph - N/A   Clear
1:53 AM 39.9 °F 30.2 °F 32.0 °F 73% 29.72 in 10.0 mi WSW 20.7 mph 28.8 mph N/A   Partly Cloudy
2:53 AM 39.9 °F 29.2 °F 30.9 °F 70% 29.73 in 10.0 mi WSW 25.3 mph 35.7 mph N/A   Overcast
3:53 AM 37.0 °F 24.5 °F 27.0 °F 67% 29.76 in 10.0 mi WSW 29.9 mph 41.4 mph N/A   Overcast
4:53 AM 36.0 °F 22.6 °F 27.0 °F 70% 29.78 in 10.0 mi WSW 32.2 mph 43.7 mph N/A   Overcast
5:53 AM 36.0 °F 23.2 °F 26.1 °F 67% 29.80 in 10.0 mi WSW 28.8 mph 36.8 mph N/A   Overcast
6:53 AM 34.0 °F 22.7 °F 27.0 °F 75% 29.83 in 10.0 mi WSW 19.6 mph 26.5 mph N/A   Overcast
7:53 AM 34.0 °F 21.5 °F 25.0 °F 70% 29.87 in 10.0 mi West 24.2 mph 34.5 mph N/A   Overcast
8:53 AM 35.1 °F 22.5 °F 25.0 °F 67% 29.89 in 10.0 mi WSW 26.5 mph 35.7 mph N/A   Overcast
9:53 AM 35.1 °F 22.5 °F 26.1 °F 70% 29.92 in 10.0 mi West 26.5 mph 34.5 mph N/A   Overcast
10:53 AM 36.0 °F 23.5 °F 25.0 °F 64% 29.95 in 10.0 mi West 27.6 mph 35.7 mph N/A   Overcast
11:53 AM 37.0 °F 24.5 °F 25.0 °F 62% 29.96 in 10.0 mi West 29.9 mph 39.1 mph N/A   Overcast
12:53 PM 37.9 °F 27.3 °F 27.0 °F 65% 29.95 in 10.0 mi West 21.9 mph 33.4 mph N/A   Overcast
1:53 PM 39.0 °F 28.0 °F 28.0 °F 65% 29.96 in 10.0 mi West 25.3 mph 35.7 mph N/A   Mostly Cloudy
2:53 PM 39.9 °F 29.7 °F 28.0 °F 63% 29.98 in 10.0 mi West 23.0 mph 32.2 mph N/A   Mostly Cloudy
3:53 PM 41.0 °F 32.2 °F 28.0 °F 60% 30.01 in 10.0 mi West 18.4 mph 27.6 mph N/A   Mostly Cloudy
4:53 PM 39.0 °F 30.3 °F 28.0 °F 65% 30.01 in 10.0 mi West 16.1 mph - N/A   Partly Cloudy
5:53 PM 35.1 °F 27.4 °F 27.0 °F 72% 30.04 in 10.0 mi West 10.4 mph - N/A   Partly Cloudy
6:53 PM 34.0 °F 26.0 °F 28.0 °F 79% 30.06 in 10.0 mi West 10.4 mph - N/A   Clear
7:53 PM 33.1 °F 25.5 °F 27.0 °F 78% 30.07 in 10.0 mi West 9.2 mph - N/A   Clear
8:53 PM 30.9 °F 23.5 °F 27.0 °F 85% 30.09 in 10.0 mi WNW 8.1 mph - N/A   Clear
9:53 PM 30.9 °F 20.7 °F 26.1 °F 82% 30.10 in 10.0 mi WNW 13.8 mph - N/A   Clear
10:53 PM 30.0 °F 22.4 °F 25.0 °F 82% 30.12 in 10.0 mi WNW 8.1 mph - N/A   Clear
11:53 PM 28.9 °F 19.8 °F 25.0 °F 85% 30.12 in 9.0 mi West 10.4 mph - N/A   Clear